DW6451 Weather Reports


Display with metric or nautical units.
time (UTC)temp
F
wind
direction
speed
MPH
gust
MPH
rain 1hr
in
rain 24hr
in
rain mn
in
humidity
%
barometer
mb
20260509191501 53 341 4.0 11.0 0.00 0.00 0.00 42 1008.2
20260509184607 52 265 3.0 10.0 0.00 0.00 0.00 46 1007.9
20260509183057 52 249 3.0 10.0 0.00 0.00 0.00 46 1007.6
20260509181619 52 38 2.0 7.0 0.00 0.00 0.00 46 1007.3
20260509180051 53 317 5.0 14.0 0.00 0.00 0.00 42 1006.9
20260509174549 54 311 3.0 10.0 0.00 0.00 0.00 44 1006.7
20260509173058 54 341 4.0 11.0 0.00 0.00 0.00 45 1006.4
20260509171544 54 329 2.0 10.0 0.00 0.00 0.00 46 1006.2
20260509170044 53 324 3.0 11.0 0.00 0.00 0.00 44 1006.1
20260509164541 53 336 3.0 11.0 0.00 0.00 0.00 46 1005.8
20260509163040 52 286 3.0 9.0 0.00 0.00 0.00 50 1005.7
20260509161538 52 351 4.0 12.0 0.00 0.00 0.00 47 1005.5
20260509160040 53 327 4.0 10.0 0.00 0.00 0.00 45 1005.2
20260509154534 52 338 3.0 12.0 0.00 0.00 0.00 45 1005.0
20260509153041 52 315 5.0 12.0 0.00 0.00 0.00 43 1004.7
20260509151530 52 325 3.0 9.0 0.00 0.00 0.00 45 1004.5
20260509150036 52 307 3.0 13.0 0.00 0.00 0.00 43 1004.3
20260509144530 52 338 4.0 10.0 0.00 0.00 0.00 44 1003.9
20260509143025 52 349 3.0 9.0 0.00 0.00 0.00 43 1003.7
20260509141526 51 319 3.0 6.0 0.00 0.00 0.00 43 1003.5
20260509140016 49 304 2.0 6.0 0.00 0.00 0.00 46 1003.4
20260509134531 47 319 1.0 6.0 0.00 0.00 0.00 49 1003.3
20260509133019 47 291 1.0 7.0 0.00 0.00 0.00 48 1003.2
20260509131515 47 308 1.0 5.0 0.00 0.00 0.00 49 1003.1
20260509130011 47 336 1.0 5.0 0.00 0.00 0.00 48 1003.0
20260509124509 47 327 0.0 5.0 0.00 0.00 0.00 51 1002.8
20260509123008 47 313 0.0 8.0 0.00 0.00 0.00 47 1002.5
20260509121536 47 275 1.0 6.0 0.00 0.00 0.00 47 1002.5
20260509120015 47 295 0.0 5.0 0.00 0.00 0.00 49 1002.3
20260509114526 47 329 0.0 3.0 0.00 0.00 0.00 50 1002.1
20260509113017 47 331 1.0 5.0 0.00 0.00 0.00 49 1001.9
20260509111506 47 305 1.0 5.0 0.00 0.00 0.00 50 1001.7
20260509110003 47 307 0.0 4.0 0.00 0.00 0.00 51 1001.4
20260509104502 47 306 0.0 4.0 0.00 0.00 0.00 51 1001.2
20260509103106 47 306 0.0 4.0 0.00 0.00 0.00 52 1001.1
20260509101623 47 303 1.0 4.0 0.00 0.00 0.00 53 1000.9
20260509100058 47 331 0.0 3.0 0.00 0.00 0.00 56 1000.8
20260509094603 47 332 0.0 3.0 0.00 0.00 0.00 57 1000.7
20260509093105 47 332 0.0 0.0 0.00 0.00 0.00 55 1000.5
20260509091602 47 332 0.0 2.0 0.00 0.00 0.00 55 1000.5
20260509084554 47 332 0.0 0.0 0.00 0.00 0.00 57 1000.3
20260509083053 47 332 0.0 1.0 0.00 0.00 0.00 57 1000.2
20260509081602 47 332 0.0 0.0 0.00 0.00 0.00 57 1000.2
20260509080050 47 332 0.0 1.0 0.00 0.00 0.00 57 1000.2
20260509074550 48 332 0.0 0.0 0.00 0.00 0.00 56 1000.2
20260509073056 48 332 0.0 0.0 0.00 0.00 0.00 55 1000.3
20260509071555 48 332 0.0 0.0 0.00 0.00 0.00 57 1000.7
20260509070048 48 332 0.0 1.0 0.00 0.00 0.00 57 1000.7
20260509064558 48 332 0.0 0.0 0.00 0.00 0.00 57 1000.7
20260509063046 48 332 0.0 1.0 0.00 0.00 0.00 57 1000.7
20260509061544 48 332 0.0 1.0 0.00 0.00 0.00 57 1000.8
20260509060042 48 332 0.0 1.0 0.00 0.00 0.00 57 1000.4
20260509054548 49 332 0.0 1.0 0.00 0.00 0.00 58 1000.2
20260509053040 49 332 0.0 1.0 0.00 0.00 0.00 58 1000.5
20260509051539 49 332 0.0 4.0 0.00 0.00 0.00 56 1000.4
20260509050037 48 333 0.0 1.0 0.00 0.00 0.00 58 1000.3
20260509044534 48 333 0.0 0.0 0.00 0.00 0.00 58 1000.1
20260509043033 48 333 0.0 0.0 0.00 0.00 0.00 58 1000.1
20260509041600 47 333 0.0 2.0 0.00 0.00 0.00 59 1000.3
20260509040033 47 333 1.0 3.0 0.00 0.00 0.00 63 1000.0
20260509034531 47 333 0.0 0.0 0.00 0.00 0.00 64 999.8
20260509033030 47 333 0.0 0.0 0.00 0.00 0.00 62 999.7
20260509031534 47 333 0.0 0.0 0.00 0.00 0.00 62 999.8
20260509030031 47 333 0.0 0.0 0.00 0.00 0.00 64 1000.0
20260509024528 47 333 0.0 0.0 0.00 0.00 0.00 63 999.9
20260509023029 47 333 0.0 3.0 0.00 0.00 0.00 64 1000.1
20260509021533 47 333 0.0 2.0 0.00 0.00 0.00 67 1000.1
20260509020040 48 332 0.0 2.0 0.00 0.00 0.00 68 999.9
20260509014526 48 332 0.0 3.0 0.00 0.00 0.00 70 1000.1
20260509013036 49 332 1.0 2.0 0.00 0.00 0.00 70 1000.0
20260509011523 50 332 0.0 2.0 0.00 0.00 0.00 69 999.9
20260509010022 50 332 0.0 5.0 0.00 0.00 0.00 68 1000.2
20260509004522 51 72 0.0 1.0 0.00 0.00 0.00 66 1000.1
20260509003018 51 72 0.0 2.0 0.00 0.00 0.00 65 1000.3
20260509001517 51 76 0.0 2.0 0.00 0.00 0.00 62 1000.6
20260509000015 52 76 1.0 5.0 0.00 0.00 0.00 61 1000.6
20260508234515 53 83 0.0 5.0 0.00 0.00 0.00 55 1000.8
20260508233016 56 42 1.0 5.0 0.00 0.00 0.00 52 1000.9
20260508231512 59 38 1.0 4.0 0.00 0.00 0.00 43 1000.9
20260508230010 60 39 0.0 5.0 0.00 0.00 0.00 42 1001.0
20260508224514 62 40 0.0 5.0 0.00 0.00 0.00 41 1001.1
20260508223008 63 93 0.0 3.0 0.00 0.00 0.00 33 1000.9
20260508221508 64 93 0.0 5.0 0.00 0.00 0.00 35 1001.1
20260508220004 64 94 0.0 3.0 0.00 0.00 0.00 32 1001.3
20260508214511 65 19 0.0 3.0 0.00 0.00 0.00 33 1001.5
20260508213001 65 19 0.0 3.0 0.00 0.00 0.00 38 1001.6
20260508211600 64 19 2.0 5.0 0.00 0.00 0.00 36 1001.7
20260508210057 63 32 1.0 3.0 0.00 0.00 0.00 31 1002.0
20260508204557 63 31 1.0 4.0 0.00 0.00 0.00 34 1002.2
20260508203054 63 32 1.0 4.0 0.00 0.00 0.00 35 1002.4
20260508201551 63 40 1.0 6.0 0.00 0.00 0.00 34 1002.8
20260508200106 64 269 0.0 7.0 0.00 0.00 0.00 31 1002.8
20260508194548 63 40 1.0 4.0 0.00 0.00 0.00 31 1003.3
20260508193110 63 360 3.0 6.0 0.00 0.00 0.00 34 1003.5